Location: Kimberly
(42.5380°N, 114.3640°W)
Time: 15:40:57
(UTC-06:00)

ELECTRON R/B - Visible Passes

Search period start: 22 May 2018 00:00
Search period end: 01 June 2018 00:00
Orbit: 285 x 480 km, 82.9° (Epoch: 21 May)

Date Brightness Start Highest point End Pass type
(mag) Time Alt. Az. Time Alt. Az. Time Alt. Az.
22 May 5.8 21:49:31 10° NNE 21:51:32 23° ENE 21:52:58 14° SE visible
23 May 5.4 22:25:34 10° NNW 22:27:54 42° W 22:29:29 17° SSW visible
25 May 5.0 22:05:09 10° NNW 22:07:32 53° W 22:09:58 10° S visible
27 May 4.6 21:44:27 10° NNW 21:46:53 69° W 21:49:24 10° S visible
28 May 7.6 22:21:41 10° WNW 22:22:43 12° W 22:23:46 10° WSW visible
30 May 7.5 22:00:09 10° NW 22:01:41 15° W 22:03:13 10° SW visible
